Notices

What's New in latest Release from April 7th, 2021:

- Updated Glossary, including Speed of Maximum Gust, and Total Hourly Precipitation

- Updated national and regional climate services offices contacts and prices information

- Addition of station inventory lists for 1981-2010, 1971-2000, and 1961-1990 Normals.

If you haven't already, please take our survey and provide feedback about our website: https://eccc.sondage-survey.ca/f/LanguageSelection.aspx?s=442ca660-fcf1-47c0-95a9-59707d6fd709

Hourly Data Report for April 27, 2018

MIRAMICHI RCS
NEW BRUNSWICK
Current Station Operator: ECCC - MSC

47°00'34.000" N
65°27'54.000" W
33.00 m
8100989
71744
ACQ

Download Data

Hourly Data (April 2018)
Hourly Data Report for April 27, 2018
TIME
LST
Temp Definition
°C
Dew Point Definition
°C
Rel Hum Definition
%
Precip. Amount Definition
mm

Wind Dir Definition
10's deg

Wind Spd Definition
km/h
Visibility Definition
km
Stn Press Definition
kPa
Hmdx Definition


Wind Chill Definition


Weather Definition


00:00 9.3 8.8 97 0.0 21 23   99.47     LegendNANA
01:00 8.8 8.1 96 0.0 22 22   99.51     LegendNANA
02:00 8.5 7.7 95 0.0 23 19   99.58     LegendNANA
03:00 7.9 6.7 92 0.0 24 23   99.67     LegendNANA
04:00 7.3 6.2 93 0.0 24 20   99.79     LegendNANA
05:00 7.1 6.0 93 0.0 24 25   99.91     LegendNANA
06:00 6.8 5.8 93 0.0 24 14   100.09     LegendNANA
07:00 7.9 6.2 90 0.0 24 14   100.20     LegendNANA
08:00 9.2 6.9 86 0.0 22 15   100.37     LegendNANA
09:00 10.7 6.7 76 0.0 25 21   100.44     LegendNANA
10:00 12.4 6.7 68 0.0 24 14   100.51     LegendNANA
11:00 14.2 5.6 56 0.0 27 14   100.54     LegendNANA
12:00 14.3 5.4 55 0.0 24 17   100.59     LegendNANA
13:00 14.8 5.7 54 0.0 23 19   100.62     LegendNANA
14:00 15.8 5.3 50 0.0 25 15   100.61     LegendNANA
15:00 16.6 4.8 46 0.0 23 19   100.61     LegendNANA
16:00 17.0 5.6 47 0.0 24 15   100.58     LegendNANA
17:00 16.9 4.9 45 0.0 25 12   100.59     LegendNANA
18:00 15.9 4.8 48 0.0 23 10   100.63     LegendNANA
19:00 14.4 5.9 57 0.0   0   100.67     LegendNANA
20:00 11.4 6.5 72 0.0 22 3   100.78     LegendNANA
21:00 12.1 7.0 71 0.0 23 7   100.78     LegendNANA
22:00 10.9 7.0 77 0.0 16 5   100.74     LegendNANA
23:00 10.2 6.6 79 0.0 14 4   100.66     LegendNANA

Notes on Data Quality.

Legend

  • E = Estimated
  • M = Missing
  • NA = Not Available*
  • [empty] = Indicates an unobserved value
Date modified: